Notices

INTERRUPTION IN DATA AVAILABILITY. Please be advised that we are currently experiencing data feed issues on our daily data report tables for August 5th, 6th, 7th, and 13th, 2017. We thank you for your patience during this time of difficulty as we are working in rectifying this issue as soon as possible. Do not hesitate to contact us at ec.services.climatiques-climate.services.ec@canada.ca if you have any further questions or concerns.

Hourly Data Report for August 21, 2017

All times are specified in Local Standard Time (LST). Add 1 hour to adjust for Daylight Saving Time where and when it is observed.

MONTREAL MIRABEL INTL A
QUEBEC

45°40'50.000" N
74°02'19.000" W
82.30 m
7034900
YMX

Related Data

No related data is available for this station

Download Data

Hourly Data (August 2017)
Hourly Data Report for August 21, 2017
Temp Definition
°C
Dew Point Temp Definition
°C
Rel Hum Definition
%
Wind Dir Definition
10's deg

Wind Spd Definition
km/h
Visibility Definition
km
Stn Press Definition
kPa
Hmdx Definition


Wind Chill Definition


Weather Definition


TIME
00:00 Legend Double Dagger 18.4 17.6 95 23 5 40.2 100.81     LegendNANA
01:00 Legend Double Dagger 17.8 17.3 97 22 5 40.2 100.81     Clear
02:00 Legend Double Dagger 18.0 17.5 96 23 8 40.2 100.80     LegendNANA
03:00 Legend Double Dagger 17.5 17.3 98 22 12 40.2 100.81     LegendNANA
04:00 Legend Double Dagger 17.2 17.1 100 23 5 40.2 100.84     Clear
05:00 Legend Double Dagger 17.2 17.2 100 26 8 4.8 100.88     Fog
06:00 Legend Double Dagger 17.3 17.3 100 22 8 0.6 100.88     Fog
07:00 Legend Double Dagger 17.4 17.4 100 24 8 2.0 100.87     Fog
08:00 Legend Double Dagger 18.9 18.2 95 26 11 9.7 100.85     Fog
09:00 Legend Double Dagger 20.9 18.8 88 26 10 16.1 100.88 28   LegendNANA
10:00 Legend Double Dagger 22.9 19.1 79 23 13 32.2 100.86 30   Mostly Cloudy
11:00 Legend Double Dagger 25.2 19.8 72 23 11 32.2 100.82 33   LegendNANA
12:00 Legend Double Dagger 26.1 19.9 68 22 13 32.2 100.73 34   LegendNANA
13:00 Legend Double Dagger 26.4 18.4 61 24 19 32.2 100.67 33   Mainly Clear
14:00 Legend Double Dagger 26.0 19.1 65 23 10 32.2 100.62 33   LegendNANA
15:00 Legend Double Dagger 26.9 18.6 60 25 18 32.2 100.56 33   LegendNANA
16:00 Legend Double Dagger 26.7 18.6 61 23 17 32.2 100.55 33   Mainly Clear
17:00 Legend Double Dagger 26.1 18.9 64 23 10 32.2 100.53 33   LegendNANA
18:00 Legend Double Dagger 25.1 19.0 68 21 11 32.2 100.52 32   LegendNANA
19:00 Legend Double Dagger 23.3 18.7 75 22 8 40.2 100.53 30   Mainly Clear
20:00 Legend Double Dagger 22.9 18.8 77 24 7 40.2 100.57 30   LegendNANA
21:00 Legend Double Dagger 22.7 18.6 77 24 7 40.2 100.55 29   LegendNANA
22:00 Legend Double Dagger 22.0 18.6 81 25 5 40.2 100.55 28   Mainly Clear
23:00 Legend Double Dagger 21.0 18.3 85 26 6 40.2 100.54 27   LegendNANA

Notes on Data Quality.

Legend

  • E = Estimated
  • M = Missing
  • NA = Not Available
  • ‡ = Partner data that is not subject to review by the National Climate Archives
Date modified: